Find Starlink 36377

NORAD ID: 67812 Int'l Des: 2026-032 Owner: SPXS Country: US Constellation: starlink operational
LEOCIRCULARRETROGRADE

現在のビュー

3D地球を読み込み中...

Starlink 36377について

説明を読み込み中...

次回通過

Passes for default location (London). Set your location on the main map for personalized predictions.

高度履歴

Loading altitude history...

軌道要素

1 67812U 26032R 26146.26862871 .00016289 00000-0 50573-3 0 9995
2 67812 97.2857 334.4027 0001863 77.1906 282.9545 15.33447835 16853
Epoch: May 26, 2026 • Age: 10 hours

現在のステータス

高度 467.9 km
速度 7.63 km/s
衛星直下点 13.26°N, 23.76°E
打ち上げ日 Feb 15, 2026
運用期間 0.2 years
タイプ internet

技術仕様

分類 Payload
質量 575.00 kg
乾燥質量 530.00 kg
総質量 575.00 kg
長さ 0.30 m
直径 4.10 m
スパン 29.00 m
形状 Box + pan
製造者 SPXS
バスタイプ Starlink V2MO
フェーズステータス In Orbit
所有者/国 SPXS/US

Most Searched